Theta_e
340 341 344 346 346 346 346 346 346 346 346 346 346 346 346 346 346 346 346 346 346 345 345 345 345 346 346 346 345 346 346 346 346 346 347 347 347 347 347 347 347 348 347 347 348 348 348 347 347 348 348 347 348 347 347 346 346 346 345 345 345 346 345 344 344 344 344 343 343 343 344 343 342 341 342 342 341 340 340 341 340 338 337 337 346
338 342 343 344 347 346 346 346 346 346 346 346 346 346 346 346 346 346 346 346 346 346 346 346 346 346 346 346 345 346 346 346 346 346 346 346 346 347 347 347 348 348 348 349 348 348 347 347 346 346 346 347 347 346 346 346 346 345 345 345 345 345 345 345 345 344 344 345 345 344 343 345 344 343 344 343 341 342 341 341 341 338 335 346 343
342 343 344 345 346 346 346 346 346 346 346 346 346 346 346 346 346 346 346 346 346 346 346 345 346 345 345 346 346 345 346 346 346 346 346 346 346 346 346 347 347 348 349 349 348 349 346 347 347 347 347 347 347 345 345 346 346 345 345 345 345 345 345 345 345 345 344 344 344 345 345 346 346 345 345 345 344 343 342 342 341 341 336 343 341
340 343 345 345 346 346 345 346 346 346 346 346 346 346 345 346 345 345 345 346 346 346 346 346 346 345 346 345 345 345 345 345 345 346 346 346 346 346 346 346 346 347 347 348 347 348 347 346 346 347 346 346 347 346 345 345 345 345 345 345 345 345 345 345 345 345 345 345 345 345 344 342 343 345 345 346 345 344 344 344 343 342 342 342 340
342 343 344 346 343 346 346 346 346 346 346 346 345 345 345 345 346 345 346 345 346 346 346 346 345 345 345 345 345 345 345 345 345 345 345 346 346 346 346 346 346 346 346 346 346 346 346 346 346 346 347 347 347 346 345 345 345 345 345 345 345 345 346 346 346 346 345 345 345 345 341 341 339 344 348 347 347 345 345 345 345 344 343 344 343
341 342 344 346 343 345 346 346 346 346 346 345 345 345 345 346 346 346 345 345 345 346 346 345 345 345 345 345 345 345 345 345 345 345 345 345 346 346 346 346 346 345 346 346 345 345 345 345 345 345 345 346 346 346 346 345 345 345 345 345 345 345 346 346 346 347 346 345 345 342 341 341 341 342 345 348 348 347 346 346 345 345 345 344 344
342 344 344 343 342 344 346 346 346 346 346 346 346 346 346 346 346 346 346 346 345 345 346 345 345 345 345 345 345 345 345 345 345 345 345 345 346 346 346 346 345 345 346 346 346 345 345 345 345 345 345 345 344 345 345 345 345 345 344 344 344 344 344 345 345 346 347 345 340 340 340 341 340 342 343 347 348 349 348 347 346 346 345 345 345
342 344 343 339 342 344 346 346 347 347 347 347 347 347 347 347 346 347 347 346 346 346 345 345 344 344 345 345 345 345 345 346 345 345 345 346 346 346 346 346 346 345 346 346 346 346 345 345 345 344 344 344 344 344 344 344 344 345 345 345 343 343 344 344 344 344 346 343 340 338 339 340 340 344 346 348 349 349 348 348 347 347 346 346 345
340 339 339 341 342 346 346 346 347 348 347 346 348 348 348 348 348 348 348 347 346 346 345 344 344 345 345 345 346 347 346 346 346 346 346 346 346 346 346 346 346 346 346 346 346 346 346 346 345 345 345 345 344 344 344 344 345 345 345 345 344 344 344 344 344 345 342 339 338 336 334 334 336 339 344 348 348 350 349 347 347 346 346 346 346
339 339 337 339 342 345 346 346 347 348 346 348 348 348 348 348 349 349 349 348 346 346 345 345 345 345 345 345 345 346 346 346 346 346 347 346 346 347 346 346 347 347 347 347 347 347 347 346 346 346 346 346 346 346 345 345 345 345 345 345 344 344 344 344 344 344 340 339 336 333 331 338 333 335 340 350 349 350 350 349 346 346 345 346 346
339 340 340 339 341 346 346 346 348 347 347 347 347 348 348 348 349 349 349 348 346 345 345 345 345 345 345 345 346 346 346 346 346 345 346 346 346 346 345 346 346 346 346 346 346 347 347 347 347 347 347 347 347 347 347 346 346 345 345 345 345 345 344 344 345 341 339 337 336 334 336 343 334 331 340 351 349 350 351 350 348 347 347 347 347
341 343 343 342 342 345 346 346 346 347 347 348 350 350 349 349 348 349 349 348 345 345 345 346 346 346 345 345 345 346 345 345 345 345 345 345 345 345 344 345 345 345 345 344 345 345 345 346 346 346 345 345 346 347 347 347 347 347 346 346 345 345 345 345 343 340 339 338 336 336 335 333 331 335 345 353 350 349 351 350 349 347 347 347 347
342 342 344 346 343 346 344 345 345 346 347 349 349 348 348 349 349 349 348 346 346 345 346 346 345 345 345 344 344 345 344 345 345 344 344 344 344 344 343 343 343 343 342 342 342 342 342 343 343 344 344 344 344 344 345 347 347 347 347 347 347 347 346 346 341 340 338 337 336 336 335 334 338 343 353 352 349 351 351 349 349 348 347 347 347
341 340 343 345 346 347 346 343 345 345 348 347 348 348 348 349 348 347 346 346 346 346 345 345 345 344 344 344 343 343 344 343 343 343 343 342 342 342 341 340 340 340 339 338 339 339 339 339 340 341 341 341 341 342 343 343 345 346 347 347 347 347 347 347 344 340 339 338 338 337 336 336 342 340 345 351 351 352 351 350 349 348 347 347 347
342 342 344 344 345 345 346 347 345 347 347 347 348 348 348 347 346 346 346 346 344 344 344 343 344 342 343 343 343 343 342 342 341 342 342 340 338 340 337 337 336 336 336 335 335 337 337 337 337 337 337 338 339 339 339 340 341 342 344 346 346 347 348 343 341 337 335 335 334 336 336 338 343 342 344 348 347 349 351 350 349 348 347 347 346
344 344 343 341 340 341 341 347 348 348 346 348 347 347 346 346 345 344 344 344 343 343 343 343 342 342 342 342 342 340 340 340 340 340 340 339 336 337 336 335 335 336 336 336 334 332 334 337 338 336 335 337 339 338 338 338 340 341 342 342 344 346 348 346 343 339 335 333 333 335 336 336 344 343 346 348 347 347 348 348 346 345 345 344 345
344 343 343 341 342 340 340 343 346 348 347 347 346 345 345 344 343 343 342 341 341 341 341 340 341 340 338 340 339 340 339 339 339 337 339 339 337 335 335 335 335 333 333 333 333 332 330 331 336 336 334 333 337 339 338 338 339 340 340 341 342 343 345 346 342 337 333 332 332 331 336 340 342 343 345 347 347 347 345 344 344 342 343 342 342
343 343 342 342 344 341 344 345 344 342 342 343 345 345 344 343 342 341 340 339 338 337 338 338 337 339 336 335 336 336 339 338 337 338 337 334 335 336 335 333 332 331 331 329 330 329 329 329 331 332 330 330 332 335 337 336 336 341 342 341 342 343 342 342 337 335 332 334 330 331 330 347 345 342 344 347 346 346 345 344 344 341 339 341 341
342 342 344 344 341 342 343 343 346 344 342 345 344 342 344 343 341 339 337 336 336 336 335 335 335 335 332 333 333 334 337 333 332 336 336 333 335 337 333 332 329 329 329 328 328 327 328 328 328 327 327 329 330 331 332 333 334 337 341 343 343 342 342 341 336 333 332 331 329 329 329 349 346 343 344 344 345 344 345 343 341 340 337 342 343
341 342 343 345 342 342 342 341 342 344 345 345 342 341 342 342 339 338 336 335 335 335 335 334 334 333 332 331 331 332 332 330 331 332 333 331 331 333 332 330 328 328 328 327 326 327 328 327 326 327 328 328 328 329 330 332 334 336 339 342 345 345 340 337 335 333 332 330 332 330 347 347 345 345 345 345 345 344 344 343 338 338 341 342 343
341 339 339 341 342 341 341 339 338 340 343 344 345 341 340 345 345 337 336 336 336 333 335 332 334 332 331 328 331 332 329 329 328 331 330 329 332 331 330 329 329 327 327 326 326 327 327 326 327 328 328 327 328 330 332 333 335 337 340 342 346 342 339 337 334 334 333 332 333 333 343 348 346 346 345 345 347 346 342 340 338 340 341 343 343
334 334 337 340 339 339 339 338 337 339 341 341 341 337 340 341 337 337 339 336 334 331 335 330 329 330 330 326 329 328 328 327 331 332 328 330 328 330 329 328 329 327 327 327 326 327 327 326 327 326 325 326 329 323 324 328 327 327 328 332 343 341 338 335 333 333 334 332 334 337 342 346 346 346 346 346 347 346 345 343 343 343 342 343 342
330 331 333 336 336 336 337 337 338 337 338 337 338 336 334 339 333 331 330 334 330 332 331 331 328 325 327 323 330 328 328 327 330 327 328 331 326 329 329 329 329 328 328 328 326 326 326 325 325 324 324 325 316 315 317 318 318 326 328 323 323 329 331 327 327 330 331 333 335 340 343 344 345 346 346 346 347 346 344 342 344 344 344 343 343
329 330 330 333 333 331 334 337 335 336 335 333 334 336 334 335 334 331 327 326 322 329 328 328 327 327 325 322 326 327 326 328 332 329 328 328 325 328 329 327 328 327 327 325 325 325 326 324 324 324 322 317 314 314 315 315 315 318 321 320 318 319 321 320 319 320 325 333 336 341 342 344 342 343 342 340 341 343 342 340 342 344 343 344 342
330 330 329 329 329 330 331 332 335 334 334 332 332 333 335 331 330 329 328 324 325 325 326 326 326 328 324 320 324 327 325 327 326 324 322 325 324 323 323 321 324 321 325 320 319 320 320 317 316 319 315 316 315 315 314 313 315 317 316 317 318 319 319 319 319 324 320 320 322 338 341 341 340 341 342 342 340 340 341 341 343 343 344 343 343
328 324 324 325 325 328 330 331 332 332 333 329 332 332 330 329 328 331 327 323 326 322 325 326 323 328 324 320 327 327 322 323 324 323 321 324 324 323 322 320 322 320 323 319 318 318 318 316 315 315 315 316 313 313 313 317 312 312 312 314 316 317 317 318 320 321 317 317 320 329 331 342 341 340 341 342 341 341 341 339 342 343 343 342 343
321 321 323 322 322 326 329 331 329 328 331 331 332 330 326 328 326 326 326 322 326 321 322 325 322 328 325 322 325 324 319 322 322 322 321 322 321 322 320 321 320 319 321 317 316 317 317 316 313 313 315 313 312 312 312 312 313 312 312 313 313 314 316 317 315 315 316 319 324 327 331 341 341 341 341 341 341 340 340 341 342 343 342 341 342
322 322 321 321 322 323 327 327 329 326 329 330 329 327 326 328 327 326 327 324 323 321 323 326 322 329 325 321 325 324 319 321 321 320 319 321 320 321 321 320 319 319 319 315 313 314 315 314 313 313 312 311 311 311 311 312 313 313 313 312 313 315 313 312 312 314 317 318 320 326 330 332 342 342 341 340 341 341 342 341 340 341 339 341 342
321 322 320 320 320 324 327 324 327 325 326 327 326 326 323 327 326 323 325 323 322 322 326 325 320 326 326 324 321 324 320 321 319 319 319 320 320 321 319 318 317 318 316 313 313 313 313 312 313 312 311 311 311 311 313 313 314 314 313 313 316 316 314 314 312 313 313 314 318 322 326 330 336 340 340 339 340 340 341 340 340 340 338 337 341
321 320 319 318 321 323 324 322 325 324 325 325 322 324 322 322 323 322 325 321 323 322 326 322 322 322 322 324 320 323 321 321 318 319 316 317 319 320 319 317 315 316 313 312 313 313 313 313 314 313 313 313 313 313 315 313 313 313 314 315 315 315 315 314 313 312 313 313 314 316 326 327 329 338 340 341 340 340 341 340 339 339 339 337 338
321 318 317 317 320 320 322 321 321 325 323 322 321 323 321 320 323 319 321 316 322 323 320 321 321 324 322 323 320 322 321 322 318 319 317 317 317 318 317 316 315 313 313 313 315 315 315 315 315 314 313 313 313 314 314 314 314 314 315 315 315 315 315 314 315 315 315 313 312 316 321 325 327 329 331 342 340 340 341 340 340 339 338 335 335
315 316 317 319 318 319 319 320 319 322 323 321 322 320 320 321 323 319 320 316 324 321 319 320 322 323 322 322 321 321 321 321 320 318 317 317 316 316 315 314 314 314 315 316 315 315 315 315 316 315 315 314 314 314 315 313 313 313 314 314 315 315 314 315 315 315 315 316 316 315 317 320 326 328 330 341 339 340 341 341 339 338 338 336 335
316 318 318 320 318 318 318 320 318 321 321 320 321 322 322 321 320 317 319 317 321 320 320 319 323 322 321 321 320 319 321 319 318 319 318 316 316 316 314 315 315 316 317 317 315 315 315 314 315 315 314 314 314 314 314 314 313 314 314 314 314 314 315 315 315 316 316 316 316 316 315 317 317 325 340 338 336 336 336 336 337 337 337 337 337
316 316 319 318 318 318 318 319 321 321 321 321 323 321 323 323 322 322 320 321 322 319 322 322 323 323 318 322 320 318 319 319 317 318 317 316 316 315 315 316 316 316 317 317 315 315 314 314 313 313 315 313 312 313 313 312 313 314 313 314 314 315 315 315 316 316 316 316 316 316 315 313 316 320 332 334 335 335 334 335 336 336 337 337 338
317 317 318 318 319 319 319 319 321 321 321 321 319 321 324 321 322 322 322 321 323 320 320 322 320 320 319 321 320 319 320 318 318 317 316 316 315 314 316 316 315 316 316 315 315 315 314 313 314 312 312 312 312 313 312 312 313 313 313 315 314 315 316 315 316 316 316 316 316 316 316 317 320 321 322 331 333 336 336 335 335 336 336 336 336
318 318 318 319 318 319 320 318 320 320 322 321 322 324 325 326 324 321 327 322 323 320 318 321 320 318 319 319 319 319 318 318 318 317 315 315 314 315 315 316 315 315 316 315 316 313 312 313 313 313 311 311 311 311 313 313 313 313 314 314 314 316 315 315 315 316 317 316 315 316 318 319 319 320 327 324 328 332 334 335 335 335 335 335 335
319 318 318 318 318 319 320 319 320 320 321 321 323 322 325 322 327 323 326 322 321 321 319 321 321 319 319 318 318 319 317 317 317 316 316 315 315 314 315 315 315 314 314 314 313 314 313 312 313 314 312 310 311 311 311 312 312 312 313 313 314 315 314 315 315 316 318 316 316 317 316 317 319 326 323 326 326 329 330 330 333 333 333 334 333
319 320 320 319 318 318 319 320 321 321 321 322 322 321 321 322 322 322 327 319 320 322 321 320 320 319 319 318 318 317 318 316 316 315 317 315 315 314 315 315 314 314 314 313 313 313 313 313 312 312 312 311 310 310 309 311 311 311 312 313 314 314 315 315 316 320 316 316 316 316 316 317 320 321 323 327 327 328 330 328 331 334 333 332 332
319 320 320 320 318 318 319 320 320 321 320 322 323 322 322 321 322 321 321 322 321 320 322 320 319 320 318 317 318 318 318 317 315 316 317 315 314 314 314 315 314 313 313 312 312 313 313 313 312 311 312 311 310 310 310 311 310 310 311 312 312 313 314 316 316 315 314 315 315 317 317 317 319 322 322 325 328 328 328 327 328 329 332 333 332
321 320 321 319 319 319 318 319 319 321 320 319 321 318 318 319 318 320 319 322 319 319 321 318 321 318 318 316 318 317 317 317 315 315 316 316 314 314 313 314 313 313 312 311 311 311 311 311 311 310 310 310 311 310 310 310 309 310 311 311 312 313 314 317 315 315 315 315 315 316 316 318 318 319 321 323 327 327 329 328 328 328 328 329 330
320 319 319 318 319 317 317 317 318 321 318 316 318 318 316 318 319 318 319 320 318 319 320 320 319 319 319 316 318 316 315 316 316 315 316 315 314 313 312 313 313 313 312 311 312 312 311 311 311 311 309 308 309 309 310 309 307 306 308 309 310 313 315 317 316 313 314 315 316 316 318 318 319 319 321 323 324 325 325 326 328 327 327 330 330
317 318 318 318 318 319 317 318 319 319 319 318 319 320 318 318 317 318 318 318 318 317 317 318 319 320 319 317 319 315 315 315 316 315 315 313 313 312 313 313 313 312 312 312 311 313 311 310 310 309 309 308 307 309 309 308 305 304 303 304 307 309 313 317 312 312 313 314 316 317 317 319 319 321 321 322 323 324 325 327 326 329 327 328 328
318 318 318 318 318 317 318 318 319 318 319 319 318 319 319 321 320 320 320 318 321 321 319 319 319 318 319 317 318 316 315 314 315 314 312 312 313 312 313 313 313 313 311 311 311 310 310 310 309 308 307 308 308 309 308 308 304 306 306 304 301 302 306 311 309 310 313 314 316 316 318 318 319 321 322 321 323 324 326 326 326 324 325 324 325
318 317 317 317 316 318 317 319 319 318 318 320 318 320 321 321 322 323 322 321 320 320 321 320 319 317 316 316 317 316 315 314 313 311 312 312 313 313 312 312 312 313 311 310 310 309 310 309 309 308 307 304 305 306 309 308 307 306 300 301 302 302 297 300 303 306 312 313 314 315 315 316 317 319 321 321 322 323 321 321 323 321 321 321 322
318 316 317 316 315 317 318 319 319 319 318 319 319 320 321 319 320 322 321 321 321 319 317 315 317 316 316 314 315 315 314 314 314 312 311 311 313 312 312 312 312 312 312 311 309 309 310 309 309 308 306 304 303 305 306 307 306 308 304 301 300 298 297 300 303 304 310 311 312 312 312 313 315 316 319 320 321 321 319 316 317 321 320 321 321
317 319 319 318 317 316 317 319 319 319 317 318 319 319 319 318 316 316 315 315 314 313 313 312 313 313 313 315 315 314 314 313 312 312 311 313 313 312 312 311 311 311 312 311 310 310 310 308 308 307 306 306 305 304 302 306 307 306 308 308 305 298 298 301 302 298 307 312 311 311 309 310 312 313 318 317 317 317 317 315 315 317 317 317 318
316 318 319 318 317 317 317 317 319 318 317 317 318 318 318 318 317 315 315 314 313 313 317 315 316 314 316 314 315 316 314 313 313 311 311 313 312 312 312 311 311 311 312 311 310 310 310 309 309 307 306 307 306 302 302 303 305 305 306 306 307 308 307 303 299 302 300 307 310 308 307 308 309 309 313 315 315 315 314 314 313 313 315 316 317
317 317 319 319 317 317 316 317 318 318 317 318 318 318 317 317 316 315 316 314 313 313 314 313 316 316 315 313 313 313 312 312 311 310 310 311 312 311 311 311 312 311 312 311 310 310 311 309 309 308 307 307 305 304 303 303 302 302 306 305 305 306 308 308 307 304 303 300 303 309 309 307 307 308 312 312 312 312 312 312 312 312 314 315 317
317 317 316 318 318 318 317 317 318 318 317 317 317 317 318 317 317 315 314 314 313 313 314 313 313 314 313 312 312 311 311 313 312 311 311 311 312 311 311 311 311 311 313 311 311 311 310 309 308 307 307 306 306 306 304 303 303 302 303 304 304 305 307 308 308 308 304 302 301 301 302 305 306 307 310 312 311 312 311 311 312 313 315 315 316
318 317 316 319 317 318 317 316 315 316 317 317 317 317 317 317 316 315 313 312 313 313 313 311 312 312 311 311 312 312 310 311 312 311 311 311 311 311 311 311 312 311 313 311 311 311 310 310 309 308 307 306 306 306 305 305 305 305 305 305 303 304 305 305 307 307 306 305 300 300 301 301 300 304 309 310 311 312 313 313 314 315 316 316 316
319 317 318 317 315 316 317 314 315 316 317 317 316 315 316 315 314 314 313 310 311 311 311 310 310 311 310 309 310 310 311 311 311 313 311 311 311 312 312 312 312 313 313 311 310 311 310 310 310 309 308 307 306 306 306 306 306 306 306 305 305 304 304 303 304 307 306 303 301 300 300 302 302 302 305 308 310 311 312 313 313 314 314 315 315
Wind_Speed
4 6 5 9 10 11 11 11 11 11 11 10 10 10 10 10 11 11 11 11 11 11 12 12 12 12 12 12 12 12 12 12 12 12 12 11 11 11 11 10 10 10 10 9 9 9 8 8 8 9 8 9 9 9 9 7 7 7 6 6 7 7 6 6 6 6 7 7 7 8 7 7 7 5 5 4 4 5 6 6 7 4 4 5 13
2 4 5 7 10 10 10 11 10 11 10 10 11 10 10 10 10 11 11 12 12 12 12 12 12 12 12 12 12 11 11 11 11 12 11 11 11 11 11 10 11 11 10 9 9 9 8 8 8 8 9 8 9 9 8 8 7 7 7 7 7 8 7 8 7 8 8 8 8 8 10 9 9 8 7 7 6 6 7 7 8 5 1 11 12
3 4 3 7 9 10 10 10 10 10 10 10 10 11 10 10 11 12 11 12 12 12 12 12 12 12 12 12 12 12 12 11 11 11 11 11 11 11 10 11 10 10 10 9 9 9 9 8 8 9 8 8 9 9 8 8 8 8 8 8 8 8 9 8 9 9 9 9 10 10 11 12 11 10 11 10 9 9 8 8 8 8 4 10 10
4 1 2 6 10 10 9 10 10 10 10 10 10 10 10 11 11 11 12 12 12 12 12 12 12 12 12 12 12 12 12 12 11 11 11 11 11 11 10 10 10 10 10 9 10 9 9 8 8 8 9 8 9 9 9 8 8 8 8 9 8 8 9 10 10 11 11 11 11 11 5 5 9 14 15 13 12 10 10 10 9 9 8 9 6
3 3 1 3 6 8 9 10 10 10 10 10 10 10 10 10 10 10 11 11 11 12 12 12 12 12 12 12 12 12 12 12 12 12 11 11 11 11 11 11 10 10 9 9 9 9 9 9 9 9 9 9 9 9 9 9 9 9 8 9 9 9 10 10 10 11 12 13 12 11 6 8 8 10 17 16 14 13 12 12 11 10 10 8 7
3 4 1 3 6 7 9 8 9 9 9 9 9 9 9 10 10 11 11 11 12 12 12 12 12 12 12 12 11 11 11 12 11 12 12 12 12 11 11 11 10 10 10 10 10 9 9 9 9 10 9 9 10 10 10 10 9 10 10 10 10 10 10 11 11 11 13 14 14 7 7 8 8 7 6 14 15 14 14 13 13 12 11 10 9
5 2 1 4 5 6 7 8 9 9 9 9 9 9 10 10 10 11 11 11 11 11 12 12 12 11 11 11 11 11 11 11 11 11 12 12 12 12 12 11 11 11 11 11 11 11 11 10 11 10 10 10 10 10 10 10 10 11 11 11 10 11 11 12 12 13 13 11 5 6 6 8 7 5 7 15 16 16 15 15 14 13 13 12 11
5 3 3 6 4 6 7 8 8 8 8 8 8 9 10 10 10 10 10 10 11 11 11 11 11 11 12 12 12 12 12 11 11 12 12 12 11 11 12 11 11 11 11 11 11 11 12 12 11 11 11 11 11 10 11 10 11 11 11 11 11 11 12 12 12 12 14 8 6 6 7 8 8 5 7 12 16 17 15 15 14 14 14 12 12
3 5 7 6 5 6 7 7 7 7 8 8 9 9 9 9 10 9 9 9 9 10 11 11 12 12 12 12 12 12 12 11 11 11 11 12 12 12 12 12 12 12 11 11 11 12 12 12 12 12 11 12 11 11 10 10 11 11 11 12 12 12 13 13 12 14 9 6 8 8 9 9 9 7 10 15 15 17 17 16 14 16 14 14 13
5 5 6 6 5 4 6 5 5 6 7 8 8 8 8 9 8 8 8 9 9 10 11 12 12 12 12 12 12 12 12 11 12 12 12 12 12 12 13 12 13 13 13 13 13 13 13 12 12 13 12 12 12 11 10 10 11 11 12 12 12 13 13 13 14 13 8 9 10 11 10 13 10 9 12 18 17 18 18 18 12 11 10 14 14
5 4 6 6 5 4 4 5 5 6 7 7 8 8 8 8 8 9 9 9 10 10 11 11 11 11 12 12 11 11 12 11 12 12 12 12 13 13 13 13 13 13 13 13 13 13 13 13 13 13 13 13 12 12 12 12 12 12 12 12 13 13 13 13 14 7 8 10 10 9 12 19 11 9 11 17 19 20 20 18 19 16 15 14 14
3 7 4 5 7 5 5 5 6 7 8 8 8 8 8 9 9 10 10 9 10 10 11 11 11 11 11 11 11 11 10 11 11 11 11 12 12 13 12 13 13 13 13 13 13 13 13 13 13 12 12 13 13 13 13 13 13 13 13 13 13 14 14 14 10 7 8 11 12 10 12 12 11 7 10 18 19 19 19 20 19 17 13 13 12
3 2 2 3 5 5 5 7 7 8 8 9 8 9 9 9 9 10 10 10 10 10 10 10 10 10 10 10 10 10 10 10 10 11 11 11 12 11 12 12 13 12 12 13 13 12 12 13 13 13 13 13 13 13 13 13 14 14 14 14 14 14 14 15 9 9 9 10 9 10 10 10 4 6 6 17 19 21 21 20 18 16 12 11 11
3 4 4 3 3 7 6 6 6 7 8 8 9 9 9 9 10 10 10 10 10 10 10 10 10 10 10 9 10 10 10 10 10 10 10 11 11 11 12 12 13 13 13 13 13 13 13 13 13 13 13 13 13 13 13 13 13 14 14 14 15 15 15 13 11 9 10 11 9 11 11 8 2 0 4 14 19 20 20 18 17 15 13 12 11
4 4 5 3 2 5 7 6 6 7 8 9 10 10 10 11 11 11 10 10 10 9 9 9 9 10 10 10 10 10 10 11 10 9 8 9 10 9 11 11 12 13 13 14 14 14 14 13 13 13 13 13 14 13 14 14 14 14 14 14 15 15 16 9 8 8 9 9 8 9 9 3 3 4 7 10 14 17 18 17 15 15 15 13 11
5 4 5 5 5 4 4 5 8 8 9 10 11 11 10 10 10 10 10 9 9 9 8 9 9 9 10 10 11 11 9 9 10 7 7 6 8 8 8 11 12 13 14 14 15 15 15 15 14 14 15 15 14 15 14 15 15 15 14 14 14 15 16 12 7 8 8 9 9 8 9 6 10 9 9 13 16 14 16 15 13 14 14 12 11
5 5 7 7 6 4 4 6 6 11 11 11 10 9 9 9 9 9 9 9 9 8 8 8 8 9 9 9 10 11 10 8 7 8 6 5 6 8 7 11 12 14 14 15 15 17 18 16 15 15 16 17 16 16 16 16 16 16 16 15 15 16 15 14 8 8 7 10 10 9 6 5 8 10 10 14 18 19 17 12 15 11 9 7 11
6 7 7 6 5 8 7 5 5 7 4 5 6 8 8 8 8 8 8 8 8 9 8 9 10 6 12 12 10 11 11 10 4 9 3 15 2 7 7 10 12 13 14 15 15 17 18 17 14 16 17 18 18 17 18 19 19 18 18 17 17 16 16 16 8 7 9 10 10 9 8 7 10 9 11 14 16 17 16 19 17 12 3 8 13
6 7 5 5 8 7 5 5 5 6 3 3 2 3 5 7 6 6 6 6 6 7 10 11 12 14 17 14 15 14 12 17 17 12 12 14 4 8 5 9 13 13 14 16 15 17 17 15 15 16 17 18 18 18 19 20 20 20 19 19 19 17 17 11 8 8 9 8 8 9 8 11 10 12 13 14 14 14 15 15 7 10 8 18 12
6 7 6 7 7 8 6 6 6 6 4 5 2 0 1 3 1 4 1 3 7 5 9 11 11 15 18 19 16 13 11 10 16 12 13 15 14 3 8 15 16 14 14 14 16 17 16 13 16 18 18 16 19 20 20 21 21 21 20 19 18 18 10 6 9 9 8 7 8 8 6 13 11 13 14 14 15 14 16 11 8 8 15 16 13
3 7 8 7 6 8 8 6 8 7 4 3 2 1 3 8 6 2 1 7 9 12 9 11 9 10 13 16 13 8 8 6 8 6 11 9 14 13 16 12 15 11 14 13 18 18 13 15 19 20 15 15 20 23 22 21 21 20 19 18 17 10 7 7 8 6 6 7 8 5 3 8 11 11 12 14 14 15 14 9 9 15 16 15 13
4 6 8 8 7 7 8 8 6 7 5 3 2 4 4 5 6 6 5 6 7 9 6 7 9 6 12 10 7 7 6 6 6 8 6 9 9 14 14 16 15 14 16 13 17 17 14 17 18 18 18 18 20 10 7 10 14 19 18 14 9 5 6 8 9 7 6 6 6 6 9 6 9 12 12 13 14 14 12 11 13 15 16 15 15
6 7 7 8 7 7 8 7 7 7 8 6 5 5 7 4 6 8 8 8 9 7 6 6 6 8 7 9 6 6 7 7 4 11 10 13 12 15 15 17 16 16 16 13 16 17 17 18 18 18 18 17 10 8 8 6 6 13 12 8 6 5 5 5 5 4 4 4 4 6 3 9 12 12 12 13 12 12 12 13 15 16 15 15 15
8 8 8 7 8 8 8 7 8 8 6 6 7 4 5 5 5 5 6 6 8 6 6 7 6 6 7 7 6 7 8 7 10 14 14 7 7 12 14 16 15 15 20 11 14 15 16 17 18 19 12 9 7 7 6 6 6 6 4 6 5 6 6 6 7 7 7 4 4 9 6 9 8 10 12 11 12 12 13 15 15 17 16 15 16
6 7 7 8 9 9 8 8 8 8 7 6 6 5 5 5 5 5 5 6 6 6 5 5 6 5 7 7 8 6 8 7 6 6 7 8 5 7 5 7 6 6 14 6 8 9 8 9 9 10 7 7 7 6 6 7 6 5 6 5 6 5 5 6 6 4 5 7 8 10 11 7 10 10 11 12 14 15 13 14 15 17 15 15 14
7 8 9 8 10 9 9 8 8 8 7 7 5 6 7 5 5 4 5 6 6 6 5 4 5 5 6 8 7 5 7 8 6 6 7 8 6 6 6 7 6 6 8 6 7 8 7 7 7 8 7 7 6 7 7 5 6 7 7 5 6 5 5 5 4 5 6 6 8 19 17 9 8 8 10 11 12 12 15 16 16 16 15 17 14
7 7 6 7 9 8 8 8 8 9 9 8 6 5 5 5 6 5 5 5 4 6 5 4 5 4 6 8 7 6 7 7 6 7 8 7 7 6 6 6 6 7 6 7 8 7 8 6 7 8 8 6 7 6 7 7 6 8 6 6 6 6 5 4 5 6 5 5 6 14 18 7 9 9 10 10 11 13 16 17 16 15 15 16 15
7 8 8 7 8 9 8 9 8 8 7 8 7 6 5 4 5 6 4 7 6 5 4 4 7 4 6 7 7 6 7 7 7 8 9 7 8 7 6 6 6 6 6 7 8 7 8 6 7 9 8 7 7 8 7 7 7 6 6 6 5 4 5 6 6 6 6 5 5 8 12 15 7 9 9 9 10 11 13 16 16 14 16 17 15
9 9 8 8 9 8 8 9 8 9 7 7 6 5 6 5 4 5 4 6 5 5 4 4 5 4 5 6 7 7 7 6 8 8 8 8 8 7 7 6 7 7 6 6 7 8 7 8 8 7 7 8 7 7 7 9 6 4 7 7 4 3 4 4 5 5 5 6 6 6 13 15 10 8 8 10 11 12 13 14 15 12 15 18 15
9 8 7 7 7 8 7 9 8 8 7 6 6 5 6 6 5 5 5 5 4 6 4 5 5 4 5 6 7 6 7 6 8 7 8 9 8 7 7 6 7 6 7 8 7 7 7 8 8 8 9 8 8 8 9 9 8 7 5 5 6 5 4 4 5 5 4 4 6 6 12 12 13 7 12 12 13 12 12 13 12 13 15 19 17
9 9 8 8 7 8 7 8 9 8 7 7 6 6 6 6 5 5 5 5 5 5 5 5 5 3 5 8 8 7 8 6 8 7 7 8 7 7 7 6 6 7 8 9 7 7 8 7 7 9 8 9 9 10 10 10 11 12 7 5 7 7 7 6 6 6 5 5 6 4 5 12 10 16 16 14 12 11 12 11 12 14 15 17 18
9 9 8 7 7 8 8 8 9 8 8 8 6 6 7 6 6 6 5 6 6 5 5 4 4 4 5 7 6 6 8 7 8 9 8 8 7 8 7 7 6 8 8 8 8 9 8 9 10 10 10 9 10 10 10 8 9 9 11 11 8 9 9 9 10 11 9 7 7 6 3 4 10 13 17 6 5 7 10 9 10 11 11 14 17
7 8 8 8 8 7 7 7 9 7 8 8 7 6 6 7 6 5 6 8 5 5 4 5 4 5 6 7 7 8 6 6 7 8 9 8 8 7 7 7 7 8 9 10 13 9 9 8 9 11 10 11 10 10 11 9 9 9 9 10 9 9 9 9 7 7 10 10 8 9 5 4 5 11 5 3 4 6 5 8 10 10 11 15 16
7 7 8 8 7 5 6 6 8 8 8 7 7 6 5 6 5 4 5 6 5 5 4 5 4 4 6 7 7 9 7 6 8 8 7 8 8 8 8 7 8 9 8 7 9 9 9 11 11 10 11 11 11 11 10 10 10 11 10 10 10 9 10 10 9 9 9 8 9 9 9 5 5 4 1 7 2 3 5 8 9 10 11 13 14
7 7 8 9 8 7 7 6 8 8 8 7 8 7 5 5 4 4 3 5 4 4 5 4 5 5 6 5 7 7 8 8 8 7 7 7 7 7 7 8 9 8 8 9 9 9 10 11 11 11 11 9 11 12 12 10 11 13 10 8 9 10 9 10 9 9 10 8 7 8 8 6 5 5 7 2 3 6 7 8 10 10 10 12 12
8 8 8 8 8 8 8 8 8 9 8 7 5 5 4 3 3 4 2 5 4 4 5 5 6 6 6 6 7 7 8 9 8 8 7 7 7 8 8 8 10 8 9 9 9 10 10 9 10 11 11 12 12 12 10 10 9 11 12 10 8 8 8 8 8 8 9 8 6 8 6 6 5 5 6 7 5 4 8 9 10 9 9 8 10
8 8 9 8 8 8 8 8 8 8 8 8 6 6 4 4 3 4 1 4 4 4 5 5 5 5 5 6 6 6 8 8 8 8 7 7 8 8 8 10 10 11 10 10 10 10 10 10 9 9 10 10 13 14 11 8 9 10 10 11 10 9 8 8 9 7 10 11 7 5 6 6 6 5 4 4 5 3 4 12 10 10 7 8 7
8 8 7 8 8 7 7 7 7 8 7 7 6 6 6 6 4 4 3 5 5 4 4 4 5 5 5 5 6 7 6 8 8 7 6 8 7 8 8 9 8 8 8 8 8 8 9 9 10 10 10 10 10 11 11 10 11 11 10 10 11 10 9 9 9 9 7 6 6 7 6 7 4 4 5 2 4 5 1 7 17 11 8 8 6
6 7 7 7 7 6 6 7 8 7 7 8 7 6 7 6 7 5 7 4 4 5 4 5 5 4 5 6 6 6 6 6 8 8 6 8 7 7 7 7 7 7 7 8 8 9 10 9 11 12 10 11 10 10 11 9 11 12 10 10 11 11 9 6 7 6 8 9 9 8 7 5 7 5 5 4 3 3 1 1 4 6 4 9 7
5 6 7 7 7 7 6 6 7 6 7 7 6 6 6 6 6 5 6 4 5 5 5 4 3 5 6 7 5 6 7 7 8 8 6 7 7 6 8 7 8 8 9 9 9 9 11 12 11 14 13 13 12 10 10 10 11 11 11 11 9 10 10 5 7 8 9 9 7 6 7 8 7 7 7 4 4 3 0 1 2 5 1 2 7
6 7 6 6 7 7 7 7 6 6 6 7 7 6 6 6 6 5 6 5 5 5 5 4 5 5 6 7 6 7 8 7 8 8 6 9 7 7 8 8 9 8 8 9 10 12 11 10 10 10 14 13 11 11 11 12 11 11 12 10 10 8 9 3 5 10 11 9 5 5 7 7 7 7 7 6 5 5 2 3 3 2 3 5 9
7 7 7 6 6 7 7 6 6 6 6 7 7 6 5 5 6 5 5 5 4 5 5 4 5 5 5 6 5 7 7 7 8 8 7 8 7 8 7 8 8 8 8 9 11 11 11 11 10 10 11 12 9 12 11 12 10 10 13 15 9 6 7 3 10 11 12 8 9 9 9 9 9 9 8 6 5 4 2 2 2 2 3 3 8
6 7 6 6 6 6 6 6 5 6 6 7 6 6 5 6 6 5 4 5 4 3 4 5 5 5 5 7 7 6 7 8 9 9 8 8 7 7 7 8 8 9 8 9 9 10 10 12 12 10 11 10 10 9 11 9 9 9 9 8 10 11 6 4 11 12 11 10 10 10 10 10 11 9 7 4 4 4 4 3 5 6 4 8 4
6 5 6 6 5 5 6 6 5 6 6 7 8 7 7 7 6 6 5 5 4 4 5 5 5 6 6 8 7 6 8 9 10 10 8 7 8 9 8 8 8 8 8 9 9 10 9 9 10 11 10 12 12 11 10 10 8 9 8 7 9 6 10 8 14 12 8 10 12 12 11 10 11 10 5 5 7 8 8 9 8 13 11 15 6
5 5 5 5 5 6 6 5 5 6 6 7 7 7 6 6 6 6 4 5 4 4 4 5 5 7 7 7 8 8 8 8 8 9 10 8 7 9 9 9 8 9 8 8 9 9 9 9 10 10 11 9 12 11 11 11 12 8 7 6 4 5 6 9 12 8 8 9 12 12 12 13 12 11 4 8 9 8 9 14 13 5 16 13 9
4 4 4 5 5 5 6 6 5 5 6 7 7 7 6 6 6 6 6 5 5 6 6 7 6 7 7 7 8 8 8 8 9 10 10 9 9 10 9 9 8 8 7 8 8 9 9 10 10 10 12 11 9 10 12 10 10 10 7 5 4 4 7 7 6 7 6 8 9 11 13 13 11 13 7 12 11 11 12 17 15 10 16 12 10
5 4 4 4 5 5 6 6 5 5 6 7 7 6 6 6 7 7 6 6 6 5 5 6 5 6 6 7 6 6 9 9 8 9 9 6 8 9 9 8 8 7 8 7 8 9 7 9 10 12 12 10 10 9 11 11 9 6 8 7 8 7 5 5 5 7 6 4 7 9 12 13 15 18 11 13 13 14 13 15 17 12 14 12 11
5 4 3 3 5 6 6 6 5 6 6 6 7 6 6 6 6 7 6 6 6 6 7 6 5 6 7 8 7 7 9 9 9 10 10 11 12 10 9 8 8 8 8 7 8 9 7 9 12 11 9 8 9 8 9 9 8 9 8 8 8 8 7 6 8 6 5 5 7 7 10 14 16 16 12 14 16 15 15 14 16 11 12 13 12
4 3 3 3 4 4 6 6 6 6 6 8 7 7 6 6 5 5 6 6 6 6 6 6 6 6 7 7 7 8 7 7 8 8 8 11 11 9 9 10 8 10 9 8 8 9 10 9 10 11 9 9 8 9 8 8 9 7 7 7 8 7 7 6 3 5 4 1 8 10 9 10 13 15 12 15 16 15 14 13 13 12 11 13 12
3 4 4 3 4 4 5 7 7 5 6 7 7 8 7 6 6 6 7 6 6 5 5 7 7 6 7 7 6 6 6 7 7 8 11 12 9 9 9 9 7 9 8 9 11 8 9 8 8 9 10 9 6 7 8 8 7 7 6 6 7 6 6 5 3 5 6 9 7 8 9 12 13 10 12 15 16 13 13 11 12 11 11 11 11
2 3 4 3 4 4 5 6 6 5 6 6 7 8 7 7 6 7 7 8 8 7 7 7 7 7 7 7 7 7 7 6 6 5 11 10 8 9 8 8 8 9 8 9 10 7 8 7 8 10 9 10 9 9 11 9 6 7 7 5 5 5 4 5 6 4 3 5 8 9 8 9 9 7 12 14 13 13 12 11 11 10 10 10 10
Wind_Direction
20 39 43 45 40 44 45 45 44 45 46 46 43 40 36 32 30 28 29 31 26 22 22 20 16 15 15 14 13 11 8 7 8 9 9 10 8 4 4 2 1 358 355 7 1 6 2 354 355 348 344 348 340 335 338 334 328 321 316 311 307 308 305 304 298 291 284 287 285 280 271 262 263 259 251 234 233 227 218 223 232 237 224 211 152
299 39 36 46 50 50 47 47 49 47 44 42 40 36 32 33 29 30 29 28 24 22 19 18 17 15 16 15 14 12 13 10 9 8 7 7 6 6 3 360 2 358 357 358 355 360 1 349 340 339 340 335 340 333 333 327 318 313 308 302 301 294 298 297 296 289 290 291 291 287 281 276 263 256 246 236 227 228 220 219 234 240 287 144 155
61 61 47 63 54 52 48 50 48 46 42 40 39 36 32 28 30 28 26 23 21 18 16 13 15 15 13 13 14 14 12 12 10 8 6 5 2 3 2 357 357 356 353 351 351 352 348 343 336 334 337 329 326 324 333 322 314 308 304 299 292 289 286 293 292 295 293 290 292 290 285 275 270 256 244 236 231 220 217 220 227 229 163 157 159
82 56 54 79 60 47 46 47 47 46 45 42 40 34 33 31 27 25 23 19 17 15 13 13 12 11 12 12 12 13 13 10 10 10 7 5 2 2 359 356 354 354 350 348 346 341 341 335 331 329 327 323 316 319 319 325 308 301 297 295 291 287 290 291 295 292 290 287 285 284 277 268 253 236 239 233 228 223 219 218 217 225 171 156 191
107 107 147 63 69 47 43 43 45 45 43 41 37 38 33 30 27 24 20 19 14 12 12 12 12 10 9 12 12 9 10 10 9 7 6 3 2 359 359 356 353 351 349 343 341 335 332 330 325 321 319 316 315 310 311 308 310 299 293 287 283 280 276 276 280 284 284 284 282 282 268 262 256 248 221 222 219 220 221 221 215 218 226 226 215
106 84 353 70 59 55 43 44 44 45 43 39 40 35 32 26 23 19 17 14 13 11 11 13 11 10 8 10 8 7 5 7 6 3 359 1 357 355 353 352 351 346 345 343 337 335 332 329 322 321 317 312 309 307 304 302 299 296 291 288 283 279 277 276 271 271 277 281 283 277 270 265 272 283 248 221 218 217 220 221 219 215 218 226 228
99 102 36 70 74 55 49 44 44 40 38 37 36 28 24 19 16 14 15 14 11 13 13 11 11 11 11 10 8 4 4 1 1 0 358 356 357 353 350 347 346 345 339 337 336 332 330 328 325 318 318 312 306 304 299 298 291 289 289 291 288 285 280 276 275 273 275 278 272 263 262 267 266 268 240 220 220 218 220 219 219 216 214 216 223
126 156 111 80 72 61 51 45 39 38 34 31 25 24 16 14 12 15 12 10 13 13 13 13 14 14 14 11 8 6 3 2 0 359 359 359 359 357 354 349 346 342 338 333 330 329 326 323 323 319 314 312 307 304 303 296 291 286 284 283 285 282 280 279 279 278 276 273 266 260 256 253 249 222 223 217 219 219 224 226 223 225 219 218 220
57 108 104 97 78 59 46 40 33 28 26 25 24 18 19 16 18 16 15 14 15 18 18 16 18 16 14 13 10 8 8 7 5 3 1 2 1 0 357 356 353 349 345 341 334 328 323 320 315 315 311 307 305 302 298 294 291 288 283 282 280 279 276 276 276 277 278 262 256 249 253 255 252 223 216 213 220 219 220 224 225 227 225 223 222
65 73 77 78 75 61 54 41 34 24 26 28 26 27 25 24 23 21 20 23 24 24 22 20 15 13 14 10 10 8 7 7 7 2 2 0 359 359 358 356 356 353 349 348 345 341 334 327 320 313 309 306 303 297 292 288 283 280 280 280 278 277 276 275 275 275 269 266 269 271 267 262 249 239 217 201 210 219 218 219 221 216 218 221 222
77 90 101 84 75 68 51 42 33 33 33 34 33 32 23 24 25 27 27 28 30 27 23 18 16 12 10 11 8 6 7 5 3 4 1 359 357 358 357 356 355 352 350 347 345 343 341 336 333 328 321 313 305 298 291 286 282 278 277 274 272 271 271 270 272 271 269 267 266 262 259 257 250 242 240 197 203 212 211 212 218 217 211 214 215
354 44 10 88 83 75 52 38 36 38 38 36 34 26 26 27 30 31 33 34 30 27 23 21 15 15 14 8 7 5 2 2 2 3 2 359 358 359 358 356 355 353 351 349 346 343 341 338 336 333 330 326 320 313 300 291 285 281 277 274 273 270 269 270 271 265 264 266 267 269 278 286 287 336 271 192 202 206 204 210 211 215 213 210 212
59 59 41 60 88 93 76 51 47 48 47 39 32 33 34 34 37 39 41 37 33 29 28 22 19 15 11 6 360 360 360 358 2 2 2 359 0 360 359 357 354 353 352 348 345 342 338 337 333 330 328 325 323 319 316 306 293 286 282 278 273 271 270 271 270 267 266 266 265 267 270 274 321 9 219 196 198 200 204 206 207 208 212 207 208
99 87 58 50 106 103 95 88 71 71 58 52 46 44 44 48 50 51 46 41 39 36 29 23 18 13 4 359 357 354 356 359 358 359 2 1 357 3 0 358 356 352 351 348 344 342 339 335 333 329 326 322 319 316 312 308 303 294 286 280 277 274 273 274 269 260 259 260 261 263 265 266 211 53 218 205 195 196 199 202 202 202 206 205 208
65 92 147 166 119 118 115 109 98 78 71 66 60 54 54 56 55 52 46 45 40 35 30 23 16 7 3 356 349 351 353 350 353 352 352 360 356 2 360 358 352 349 344 343 342 337 333 330 329 328 324 319 314 312 307 303 297 293 290 285 278 275 274 271 271 274 276 274 271 269 259 262 211 177 192 203 213 203 199 199 197 200 203 203 204
76 46 53 50 52 66 73 109 117 92 75 70 68 60 58 57 57 51 48 41 35 29 24 20 11 2 359 351 346 343 340 344 335 340 338 347 355 351 356 352 348 343 338 337 338 337 329 322 322 324 322 315 308 305 303 298 293 286 282 279 276 273 270 268 265 269 269 272 270 257 255 211 201 191 190 189 209 213 216 202 199 205 203 201 202
72 62 57 52 29 61 68 48 103 74 51 63 64 68 65 60 56 52 46 37 27 22 15 7 2 1 351 343 342 335 335 334 332 329 329 310 338 332 358 350 343 342 334 331 331 331 329 320 316 318 319 314 306 301 299 295 288 281 274 266 263 263 263 262 260 262 266 268 270 272 252 187 191 187 195 199 206 212 207 209 214 222 215 209 210
44 46 54 55 41 48 31 32 49 96 93 32 50 61 66 60 55 50 46 34 26 17 8 2 359 352 357 348 339 333 326 338 304 321 284 346 267 315 350 344 341 333 330 330 327 329 329 324 318 316 316 315 307 298 294 293 288 279 271 265 259 257 256 257 254 257 263 266 267 269 264 182 197 206 208 213 216 219 214 210 210 208 8 260 231
42 50 45 48 37 46 47 34 42 76 111 125 24 19 65 69 55 55 46 38 24 23 13 8 8 359 360 350 346 339 352 348 336 320 358 346 28 282 337 313 332 327 330 332 333 329 323 323 323 317 317 315 307 299 294 291 288 281 275 268 263 259 257 259 256 262 263 265 266 263 263 176 193 195 211 226 231 229 237 235 224 60 227 241 234
32 37 37 42 34 41 25 37 34 44 36 82 102 337 209 73 93 57 74 73 24 12 24 8 12 3 360 351 348 343 359 349 332 334 357 344 325 239 310 344 333 331 332 334 335 327 322 333 325 320 312 310 308 302 297 291 284 279 274 269 267 266 263 251 257 261 259 260 264 259 170 169 180 195 205 221 232 239 239 235 61 222 223 237 240
24 49 36 38 32 34 33 25 30 17 38 37 146 190 117 185 217 102 323 19 18 0 19 11 14 10 4 353 346 347 356 335 321 337 357 332 321 343 341 329 323 333 334 346 336 327 333 342 325 317 313 317 308 302 297 290 282 280 278 272 266 262 257 257 258 264 272 275 276 293 162 190 195 213 224 224 227 231 232 236 203 232 238 233 236
36 45 48 34 34 37 31 26 18 12 355 20 4 27 6 349 32 27 350 29 359 13 0 17 7 21 10 353 343 360 335 320 311 2 343 316 338 344 335 343 334 357 333 348 336 327 342 336 320 331 337 317 309 307 305 309 341 339 330 315 274 268 261 263 264 257 255 270 290 313 320 218 234 233 221 221 219 218 228 231 211 228 235 240 239
59 52 47 40 33 33 29 20 18 12 356 359 0 54 0 351 38 18 341 25 353 20 356 19 27 10 14 353 347 352 326 317 340 354 346 340 350 342 346 337 345 345 328 348 342 334 346 333 334 339 328 326 337 331 315 329 339 327 321 335 329 292 275 287 296 281 265 253 271 261 221 228 244 243 235 227 221 231 238 234 225 239 235 239 237
49 48 47 34 33 26 15 10 15 8 16 357 352 21 21 356 22 46 342 28 343 10 13 357 34 12 15 351 355 344 336 319 8 357 343 336 343 337 346 340 344 345 336 355 344 335 339 338 335 337 332 336 323 310 321 331 315 292 309 325 303 296 306 318 317 307 302 294 258 258 245 194 219 251 265 268 254 236 240 249 237 239 234 231 234
42 43 43 36 27 24 13 0 17 358 10 2 355 353 39 10 13 17 351 29 336 3 19 350 12 23 21 355 353 348 341 331 4 358 336 328 356 331 355 344 328 349 337 359 341 329 342 335 335 330 326 320 308 311 332 316 299 311 323 306 289 300 301 287 275 299 328 325 318 294 257 214 205 216 234 240 247 257 255 249 243 245 239 237 231
35 38 31 33 23 18 16 4 2 7 1 355 357 354 27 6 14 18 350 27 336 3 13 351 358 34 32 359 342 346 353 333 360 357 338 329 349 327 0 339 331 345 338 352 336 327 341 331 332 325 311 307 317 330 316 310 327 318 303 295 301 293 287 284 305 338 330 316 309 311 309 243 217 225 232 242 251 260 267 260 251 245 243 243 234
27 27 31 27 24 4 22 6 12 1 359 350 347 16 19 0 10 354 15 10 356 0 2 343 355 39 37 3 349 345 0 327 357 351 342 333 345 332 1 337 343 338 346 347 336 333 332 329 329 315 301 315 325 315 315 321 313 302 294 299 298 300 304 319 333 310 284 280 282 301 300 252 220 215 230 246 249 261 267 265 255 246 250 249 240
35 23 19 24 25 3 21 7 18 6 355 343 360 15 0 12 13 343 26 353 22 352 334 359 2 25 41 14 352 342 0 329 2 353 337 343 337 335 354 335 346 332 349 346 335 338 322 328 321 306 313 323 319 323 319 314 306 301 303 296 293 314 336 325 314 302 292 278 277 281 293 317 252 236 236 242 254 255 262 271 267 261 259 252 237
35 23 23 14 22 1 24 9 20 11 347 348 7 5 359 353 12 349 16 4 25 332 334 10 13 355 35 28 360 339 359 348 1 351 335 345 328 339 348 345 345 333 348 344 339 323 319 327 309 308 329 324 327 320 313 296 283 287 280 275 282 299 285 293 295 296 305 303 295 294 304 289 278 248 252 254 255 252 256 263 270 269 267 261 233
40 29 21 17 22 357 25 14 14 12 349 358 2 360 7 346 0 349 31 4 10 317 19 351 22 6 356 35 8 347 356 8 354 345 347 339 327 344 340 346 336 338 359 344 329 320 334 315 311 329 324 330 318 314 305 299 299 292 295 329 310 284 270 268 264 263 277 300 304 302 296 309 327 262 234 248 245 246 244 251 262 266 254 254 238
49 33 24 20 17 6 17 23 10 11 351 11 359 355 16 342 352 2 13 13 331 330 33 353 2 26 352 36 11 354 353 9 353 342 351 334 335 339 332 347 332 2 357 331 321 334 311 298 332 328 334 325 323 326 323 327 320 315 321 314 315 331 331 323 322 313 297 275 272 285 308 315 305 303 290 240 242 238 242 247 252 258 260 263 255
35 33 24 23 15 15 8 24 12 9 354 14 0 0 13 345 350 17 1 5 340 335 30 349 351 23 3 46 11 360 356 9 347 348 347 335 338 328 341 340 0 359 338 317 331 317 314 339 342 328 335 330 331 318 315 314 304 321 343 341 353 345 336 338 330 328 323 327 312 285 293 297 300 298 298 238 195 229 253 254 248 244 257 252 255
29 30 25 22 20 18 3 16 11 13 359 13 356 9 5 348 351 26 351 8 341 331 29 350 353 31 357 44 17 359 358 0 347 354 344 338 329 331 349 342 3 347 327 340 333 328 336 335 343 348 339 337 331 327 319 316 327 344 334 339 338 338 334 328 318 324 322 320 317 320 305 301 297 287 250 89 230 265 262 250 250 247 240 245 247
28 22 20 23 22 21 10 6 7 10 5 9 0 0 2 335 357 22 2 353 327 349 10 351 19 21 3 38 16 358 353 2 351 347 346 338 332 344 344 351 356 339 323 338 329 332 340 353 353 345 340 336 332 328 330 338 340 337 340 342 337 340 339 329 326 320 316 313 314 315 306 296 287 300 98 210 190 271 258 245 252 247 250 252 249
30 27 20 14 28 15 20 11 6 5 3 6 1 351 354 340 348 353 16 335 317 18 350 351 27 18 13 12 12 3 346 359 354 348 349 340 338 338 343 2 345 326 332 346 334 353 354 350 354 346 342 335 335 332 333 338 345 336 331 333 333 331 330 325 319 313 309 299 302 300 301 303 324 323 306 321 220 225 224 244 239 239 245 250 251
36 28 21 15 23 18 19 18 7 5 357 356 346 335 318 334 312 354 10 331 329 35 3 352 30 16 9 358 12 3 342 358 353 353 349 342 343 346 356 353 334 339 352 350 348 353 350 352 349 341 339 336 332 333 335 339 341 333 326 323 324 326 323 316 310 309 300 298 302 295 306 328 322 306 341 341 333 293 272 237 239 237 240 245 240
37 27 25 17 17 16 19 11 8 4 351 347 340 332 327 325 313 354 349 351 351 49 16 0 22 26 10 355 359 11 350 351 352 0 343 352 354 355 348 349 353 355 358 353 352 348 347 347 340 340 337 333 333 333 332 341 334 327 325 325 322 325 320 317 315 312 306 291 284 311 319 308 297 329 350 352 341 351 289 273 252 240 235 230 228
37 30 29 21 15 16 13 9 6 360 357 342 343 344 348 336 9 334 356 40 353 48 38 16 354 41 2 349 14 0 352 356 348 0 348 358 359 349 349 353 356 352 358 347 342 340 340 346 341 339 338 331 333 332 334 336 335 328 324 320 325 321 319 317 311 308 298 320 320 312 308 293 310 3 348 342 319 304 335 339 288 255 235 233 211
36 30 29 22 19 16 12 13 3 0 3 348 347 1 351 4 352 8 343 49 18 355 53 17 3 20 0 358 11 357 344 356 353 357 11 352 1 343 344 346 351 351 360 345 343 341 343 347 347 337 333 332 335 331 331 335 333 322 318 326 322 313 304 306 321 317 342 334 325 317 305 328 355 348 318 294 286 286 231 170 295 274 231 220 195
42 30 32 24 18 18 14 10 9 1 6 359 351 4 356 5 355 6 347 12 36 6 21 25 358 7 8 358 7 354 351 1 355 1 17 348 359 340 339 353 358 5 359 347 346 345 350 349 346 338 334 338 337 331 332 343 328 319 322 322 314 305 310 347 345 339 336 324 324 324 349 349 341 324 310 305 289 298 48 225 217 270 335 214 150
48 34 26 27 19 18 11 7 13 357 17 4 352 1 1 358 348 9 348 344 37 7 5 25 350 26 2 6 0 4 356 1 352 12 9 2 347 349 344 5 11 5 354 350 345 350 356 349 337 334 340 338 336 336 341 343 334 327 328 322 316 320 322 358 359 343 333 317 320 355 347 338 327 322 321 312 323 360 16 298 301 161 261 154 140
46 37 23 24 25 19 14 4 16 356 20 11 346 355 6 356 341 357 339 339 31 10 355 17 353 17 6 11 356 15 352 3 353 21 4 360 349 348 350 11 8 359 355 351 351 350 349 343 344 338 341 338 333 336 342 342 334 338 333 324 321 329 311 357 5 339 333 348 6 3 354 344 338 332 323 328 13 358 324 330 178 213 162 144 140
38 44 24 16 26 20 17 1 21 8 7 12 358 347 7 352 344 343 351 334 47 15 357 12 3 4 22 13 351 16 355 12 0 20 2 356 349 339 13 7 9 357 356 352 346 347 350 348 349 348 338 335 326 331 337 335 321 327 315 309 330 331 351 3 344 346 336 19 3 7 359 350 340 331 328 1 5 1 13 27 41 51 62 67 88
43 36 31 14 20 20 16 4 19 19 2 13 5 345 8 357 347 343 1 341 30 12 8 5 13 2 24 10 354 3 12 16 5 16 358 352 342 20 5 8 7 358 354 348 344 346 344 347 349 347 344 330 330 327 339 330 328 337 334 334 309 325 336 2 343 327 357 17 19 10 7 356 343 337 350 36 44 46 55 54 50 85 70 77 34
60 42 28 25 21 16 14 12 18 21 10 6 10 352 5 5 351 346 6 350 17 15 9 7 12 8 11 14 357 359 19 14 6 13 360 347 10 18 11 5 1 353 353 344 337 338 340 347 352 346 342 333 324 328 334 340 337 334 325 327 327 346 347 331 332 312 22 19 25 19 11 4 0 356 30 55 58 45 58 57 30 54 87 79 78
67 57 25 42 29 18 16 11 20 28 12 10 12 360 11 5 0 355 2 3 10 10 7 9 4 9 12 15 352 4 14 19 3 7 2 347 26 16 13 6 355 349 346 334 332 331 343 359 357 342 332 338 328 324 330 336 338 336 343 352 336 301 319 321 321 325 353 47 23 17 13 2 0 9 16 67 57 54 53 62 41 29 79 73 63
45 59 50 43 39 31 21 13 19 29 20 11 15 8 10 9 8 359 358 5 6 12 0 17 3 7 18 14 352 9 16 16 1 13 336 10 21 22 7 3 347 341 338 332 335 343 354 4 352 350 353 347 342 329 333 333 327 339 341 330 317 310 288 301 317 309 332 34 24 23 14 10 14 12 3 62 60 59 54 64 59 16 63 62 60
61 49 54 44 47 31 29 21 18 33 27 12 14 16 10 12 8 0 358 7 7 12 6 12 3 13 20 15 1 15 14 8 9 5 347 13 20 16 360 352 341 343 344 341 349 355 4 2 359 358 349 344 342 331 325 324 332 322 335 327 320 311 297 271 262 271 320 351 21 19 21 15 23 9 2 55 56 55 56 62 71 45 51 57 55
69 56 48 60 62 40 36 26 25 34 30 20 17 17 15 13 9 3 359 10 6 20 7 13 9 18 29 13 13 15 8 12 6 352 356 24 24 356 354 340 345 355 349 345 354 359 9 7 357 352 345 334 340 334 317 316 321 317 325 329 319 312 311 288 16 359 357 97 47 30 13 16 33 11 358 57 60 57 59 62 69 64 46 58 53
62 76 57 58 68 49 36 38 26 31 24 29 21 19 17 6 11 9 9 8 10 16 11 19 10 24 18 20 10 13 8 11 2 342 13 20 6 345 347 334 355 349 348 353 353 4 14 1 349 343 337 325 317 317 314 310 309 307 316 320 322 326 325 342 360 17 35 55 75 50 29 29 38 5 12 45 53 52 52 52 60 62 59 65 65
109 75 82 55 58 44 38 46 37 26 28 33 29 21 20 10 11 7 11 13 11 15 16 24 11 20 20 17 11 13 7 356 353 348 26 359 356 343 334 340 355 355 355 360 351 12 4 357 340 332 334 334 322 309 326 320 310 313 317 318 326 320 321 327 322 350 66 106 90 68 49 37 35 3 21 36 43 49 49 50 59 63 66 62 61